RYR2RE LMML-LHBP

Flight info

Callsign RYR2RE
Flight time 1h 52m
Altitude 34000
Route GZO P623 OLLEK DCT ARFOL DCT ROMSU DCT AIOSA/N0459F350 DCT NETKO DCT BAREB DCT ULZAK
Aircraft B738/M-SDE2E3FGHIRWXY/LB1

Departure

Time 2026-04-27 12:11
Airport Malta International Airport (LMML)

Arrival

Time 2026-04-27 14:04
Airport Budapest Liszt Ferenc International Airport (LHBP)
Time Latitude Longitude Altitude Speed Heading
2026-04-27 11:45 35.84862 14.49455 258 ft 0 kts 359°
2026-04-27 12:01 35.84860 14.49455 258 ft 2 kts 359°
2026-04-27 12:01 35.84834 14.49457 258 ft 4 kts 351°
2026-04-27 12:02 35.84808 14.49464 258 ft 4 kts 340°
2026-04-27 12:02 35.84790 14.49473 258 ft 1 kts 336°
2026-04-27 12:02 35.84787 14.49475 258 ft 0 kts 336°
2026-04-27 12:05 35.84794 14.49465 258 ft 4 kts 302°
2026-04-27 12:05 35.84824 14.49407 258 ft 13 kts 309°
2026-04-27 12:06 35.84903 14.49306 258 ft 20 kts 313°
2026-04-27 12:06 35.84911 14.49165 257 ft 17 kts 233°
2026-04-27 12:06 35.84940 14.49041 257 ft 16 kts 302°
2026-04-27 12:06 35.84984 14.48917 258 ft 16 kts 288°
2026-04-27 12:07 35.85018 14.48771 260 ft 18 kts 285°
2026-04-27 12:07 35.85060 14.48625 266 ft 18 kts 297°
2026-04-27 12:07 35.85138 14.48501 272 ft 20 kts 315°
2026-04-27 12:07 35.85239 14.48373 274 ft 21 kts 314°
2026-04-27 12:08 35.85340 14.48249 274 ft 20 kts 315°
2026-04-27 12:08 35.85439 14.48127 272 ft 20 kts 314°
2026-04-27 12:08 35.85536 14.48009 274 ft 19 kts 314°
2026-04-27 12:08 35.85624 14.47905 272 ft 14 kts 332°
2026-04-27 12:09 35.85664 14.47884 271 ft 6 kts 315°
2026-04-27 12:09 35.85643 14.47862 271 ft 6 kts 154°
2026-04-27 12:09 35.85624 14.47900 273 ft 0 kts 132°
2026-04-27 12:10 35.85619 14.47907 271 ft 6 kts 132°
2026-04-27 12:10 35.85507 14.48050 273 ft 54 kts 134°
2026-04-27 12:11 35.85074 14.48585 267 ft 122 kts 135°
2026-04-27 12:11 35.84328 14.49485 360 ft 169 kts 137°
2026-04-27 12:11 35.83479 14.50482 988 ft 167 kts 139°
2026-04-27 12:11 35.82615 14.51452 1174 ft 171 kts 139°
2026-04-27 12:12 35.81726 14.52470 1152 ft 184 kts 137°
2026-04-27 12:12 35.80642 14.53426 1360 ft 194 kts 168°
2026-04-27 12:12 35.79388 14.53156 2335 ft 188 kts 214°
2026-04-27 12:12 35.78604 14.51785 2721 ft 213 kts 256°
2026-04-27 12:13 35.78637 14.49865 3016 ft 235 kts 275°
2026-04-27 12:13 35.78606 14.47763 3295 ft 256 kts 258°
2026-04-27 12:13 35.78099 14.45652 3979 ft 263 kts 247°
2026-04-27 12:13 35.77323 14.43608 4897 ft 264 kts 242°
2026-04-27 12:14 35.76427 14.41609 5730 ft 268 kts 240°
2026-04-27 12:14 35.75714 14.39468 6500 ft 275 kts 259°
2026-04-27 12:14 35.75688 14.37113 7336 ft 277 kts 281°
2026-04-27 12:14 35.76384 14.34897 8158 ft 281 kts 303°
2026-04-27 12:15 35.77743 14.33203 8931 ft 285 kts 326°
2026-04-27 12:15 35.79523 14.32107 9709 ft 288 kts 336°
2026-04-27 12:15 35.81387 14.31208 10573 ft 288 kts 338°
2026-04-27 12:15 35.83326 14.30309 10899 ft 309 kts 337°
2026-04-27 12:16 35.85412 14.29334 11099 ft 331 kts 337°
2026-04-27 12:16 35.87640 14.28279 11275 ft 352 kts 337°
2026-04-27 12:16 35.89946 14.27176 11668 ft 364 kts 336°
2026-04-27 12:16 35.92315 14.26035 12347 ft 366 kts 336°
2026-04-27 12:17 35.94687 14.24888 13108 ft 367 kts 336°
2026-04-27 12:17 35.97082 14.23724 13695 ft 372 kts 336°
2026-04-27 12:17 35.99508 14.22546 14298 ft 376 kts 336°
2026-04-27 12:17 36.02088 14.21832 14851 ft 387 kts 354°
2026-04-27 12:18 36.04768 14.22131 15473 ft 397 kts
2026-04-27 12:18 36.07385 14.23385 16044 ft 409 kts 27°
2026-04-27 12:18 36.09797 14.25285 16631 ft 414 kts 30°
2026-04-27 12:18 36.12166 14.27265 17159 ft 418 kts 31°
2026-04-27 12:19 36.14576 14.29306 17666 ft 422 kts 31°
2026-04-27 12:19 36.17021 14.31369 18158 ft 426 kts 31°
2026-04-27 12:19 36.19487 14.33432 18664 ft 429 kts 30°
2026-04-27 12:19 36.21983 14.35505 19184 ft 432 kts 30°
2026-04-27 12:20 36.24496 14.37584 19683 ft 435 kts 30°
2026-04-27 12:20 36.27023 14.39670 20156 ft 438 kts 30°
2026-04-27 12:20 36.29542 14.41749 20617 ft 441 kts 30°
2026-04-27 12:20 36.32109 14.43868 21061 ft 444 kts 30°
2026-04-27 12:21 36.34694 14.46005 21526 ft 447 kts 30°
2026-04-27 12:21 36.37290 14.48153 21903 ft 450 kts 30°
2026-04-27 12:21 36.39911 14.50324 22303 ft 453 kts 30°
2026-04-27 12:21 36.42540 14.52503 22712 ft 455 kts 30°
2026-04-27 12:22 36.45159 14.54675 23100 ft 458 kts 30°
2026-04-27 12:22 36.47835 14.56835 23466 ft 459 kts 25°
2026-04-27 12:22 36.50718 14.58558 23832 ft 456 kts 17°
2026-04-27 12:22 36.53746 14.59711 24193 ft 453 kts
2026-04-27 12:23 36.56850 14.60420 24549 ft 454 kts
2026-04-27 12:23 36.59934 14.61068 24864 ft 456 kts
2026-04-27 12:23 36.63083 14.61732 25160 ft 459 kts
2026-04-27 12:23 36.66241 14.62421 25462 ft 462 kts
2026-04-27 12:24 36.69419 14.63135 25784 ft 464 kts
2026-04-27 12:24 36.72610 14.63865 26070 ft 467 kts
2026-04-27 12:24 36.75811 14.64604 26366 ft 469 kts
2026-04-27 12:24 36.79026 14.65345 26655 ft 471 kts
2026-04-27 12:25 36.82225 14.66082 26937 ft 473 kts
2026-04-27 12:25 36.85479 14.66829 27200 ft 475 kts
2026-04-27 12:25 36.88752 14.67574 27457 ft 477 kts
2026-04-27 12:25 36.92023 14.68317 27739 ft 479 kts
2026-04-27 12:26 36.95305 14.69065 28107 ft 478 kts
2026-04-27 12:26 36.98531 14.69802 28513 ft 476 kts
2026-04-27 12:26 37.01783 14.70546 28907 ft 475 kts
2026-04-27 12:26 37.05041 14.71292 29268 ft 474 kts
2026-04-27 12:27 37.08281 14.72034 29619 ft 473 kts
2026-04-27 12:27 37.11529 14.72779 29984 ft 472 kts
2026-04-27 12:27 37.14730 14.73514 30336 ft 472 kts
2026-04-27 12:27 37.17963 14.74253 30637 ft 472 kts
2026-04-27 12:28 37.21187 14.74994 30974 ft 470 kts
2026-04-27 12:28 37.24391 14.75862 31281 ft 473 kts 12°
2026-04-27 12:28 37.27510 14.77238 31564 ft 475 kts 17°
2026-04-27 12:28 37.30554 14.78751 31890 ft 475 kts 18°
2026-04-27 12:29 37.33613 14.80316 32217 ft 474 kts 18°
2026-04-27 12:29 37.36668 14.81885 32480 ft 474 kts 18°
2026-04-27 12:29 37.39727 14.83446 32731 ft 474 kts 18°
2026-04-27 12:29 37.42785 14.84993 33040 ft 472 kts 18°
2026-04-27 12:30 37.45836 14.86525 33339 ft 471 kts 18°
2026-04-27 12:30 37.48844 14.88028 33599 ft 470 kts 18°
2026-04-27 12:30 37.51888 14.89545 33853 ft 470 kts 18°
2026-04-27 12:30 37.54934 14.91062 34095 ft 470 kts 18°
2026-04-27 12:31 37.57994 14.92586 34073 ft 473 kts 18°
2026-04-27 12:31 37.64080 14.95624 34107 ft 472 kts 18°
2026-04-27 12:32 37.70156 14.98668 34109 ft 467 kts 18°
2026-04-27 12:32 37.76198 15.01698 34103 ft 465 kts 18°
2026-04-27 12:33 37.82186 15.04704 34113 ft 463 kts 18°
2026-04-27 12:33 37.88186 15.07724 34119 ft 463 kts 18°
2026-04-27 12:34 37.94143 15.10726 34136 ft 464 kts 18°
2026-04-27 12:34 38.00163 15.13765 34140 ft 467 kts 18°
2026-04-27 12:35 38.06222 15.16829 34142 ft 468 kts 18°
2026-04-27 12:35 38.12256 15.19887 34132 ft 469 kts 18°
2026-04-27 12:36 38.18332 15.22972 34124 ft 469 kts 18°
2026-04-27 12:36 38.24396 15.26058 34125 ft 468 kts 18°
2026-04-27 12:37 38.30412 15.29124 34128 ft 467 kts 18°
2026-04-27 12:37 38.36456 15.32211 34130 ft 466 kts 18°
2026-04-27 12:38 38.42444 15.35270 34138 ft 465 kts 18°
2026-04-27 12:38 38.48455 15.38349 34140 ft 465 kts 18°
2026-04-27 12:39 38.54476 15.41440 34136 ft 465 kts 18°
2026-04-27 12:39 38.60458 15.44519 34138 ft 464 kts 18°
2026-04-27 12:40 38.66455 15.47607 34139 ft 464 kts 18°
2026-04-27 12:40 38.72417 15.50678 34137 ft 464 kts 19°
2026-04-27 12:41 38.78418 15.53780 34147 ft 464 kts 19°
2026-04-27 12:41 38.84406 15.56883 34150 ft 464 kts 19°
2026-04-27 12:42 38.90371 15.59980 34146 ft 464 kts 19°
2026-04-27 12:42 38.96369 15.63097 34172 ft 463 kts 19°
2026-04-27 12:43 39.02312 15.66191 34180 ft 463 kts 19°
2026-04-27 12:43 39.08295 15.69311 34176 ft 463 kts 19°
2026-04-27 12:44 39.14237 15.72415 34179 ft 462 kts 19°
2026-04-27 12:44 39.20209 15.75544 34186 ft 462 kts 19°
2026-04-27 12:45 39.26172 15.78673 34192 ft 461 kts 19°
2026-04-27 12:45 39.32089 15.81783 34193 ft 461 kts 19°
2026-04-27 12:46 39.38037 15.84913 34204 ft 460 kts 19°
2026-04-27 12:46 39.43974 15.88045 34216 ft 460 kts 19°
2026-04-27 12:47 39.49907 15.91179 34216 ft 459 kts 19°
2026-04-27 12:47 39.55791 15.94295 34225 ft 459 kts 20°
2026-04-27 12:48 39.61711 15.97436 34210 ft 458 kts 20°
2026-04-27 12:48 39.67582 16.00551 34219 ft 457 kts 19°
2026-04-27 12:49 39.73476 16.03687 34215 ft 458 kts 20°
2026-04-27 12:49 39.79375 16.06835 34211 ft 458 kts 20°
2026-04-27 12:50 39.85262 16.09981 34196 ft 459 kts 20°
2026-04-27 12:50 39.91185 16.13151 34196 ft 459 kts 20°
2026-04-27 12:51 39.97095 16.16321 34200 ft 459 kts 20°
2026-04-27 12:51 40.02973 16.19480 34187 ft 459 kts 20°
2026-04-27 12:52 40.07902 16.22132 34192 ft 459 kts 20°
2026-04-27 12:52 40.14776 16.25839 34179 ft 459 kts 20°
2026-04-27 12:53 40.22646 16.30093 34174 ft 458 kts 20°
2026-04-27 12:53 40.29500 16.33808 34177 ft 458 kts 20°
2026-04-27 12:54 40.34401 16.36467 34165 ft 458 kts 20°
2026-04-27 12:54 40.40312 16.39683 34159 ft 458 kts 20°
2026-04-27 12:55 40.46210 16.42895 34150 ft 458 kts 20°
2026-04-27 12:55 40.52077 16.46096 34140 ft 459 kts 20°
2026-04-27 12:56 40.57979 16.49325 34135 ft 459 kts 20°
2026-04-27 12:56 40.63893 16.52566 34129 ft 460 kts 20°
2026-04-27 12:57 40.69807 16.55813 34125 ft 460 kts 19°
2026-04-27 12:57 40.75699 16.59053 34130 ft 461 kts 20°
2026-04-27 12:58 40.81618 16.62315 34126 ft 461 kts 19°
2026-04-27 12:58 40.87519 16.65573 34120 ft 461 kts 19°
2026-04-27 12:59 40.93440 16.68849 34116 ft 461 kts 19°
2026-04-27 12:59 40.99377 16.72138 34116 ft 461 kts 19°
2026-04-27 13:00 41.05306 16.75431 34111 ft 462 kts 19°
2026-04-27 13:00 41.11199 16.78713 34103 ft 462 kts 19°
2026-04-27 13:01 41.17134 16.82023 34103 ft 462 kts 19°
2026-04-27 13:01 41.23074 16.85341 34104 ft 462 kts 19°
2026-04-27 13:02 41.28972 16.88643 34104 ft 462 kts 19°
2026-04-27 13:02 41.34912 16.91973 34112 ft 462 kts 19°
2026-04-27 13:03 41.40840 16.95304 34106 ft 461 kts 19°
2026-04-27 13:03 41.46735 16.98624 34111 ft 461 kts 19°
2026-04-27 13:04 41.52613 17.01942 34112 ft 461 kts 19°
2026-04-27 13:04 41.58541 17.05294 34108 ft 461 kts 19°
2026-04-27 13:05 41.64464 17.08649 34110 ft 462 kts 19°
2026-04-27 13:05 41.70389 17.12013 34399 ft 465 kts 19°
2026-04-27 13:06 41.73362 17.13704 34684 ft 463 kts 19°
2026-04-27 13:06 41.76333 17.15396 34985 ft 461 kts 19°
2026-04-27 13:06 41.79285 17.17077 35098 ft 463 kts 19°
2026-04-27 13:06 41.82261 17.18774 35102 ft 464 kts 19°
2026-04-27 13:07 41.88183 17.22157 35097 ft 461 kts 19°
2026-04-27 13:07 41.94072 17.25386 35094 ft 455 kts 14°
2026-04-27 13:08 42.00126 17.27666 35100 ft 451 kts 11°
2026-04-27 13:08 42.06209 17.29774 35104 ft 451 kts 11°
2026-04-27 13:09 42.12290 17.31939 35103 ft 451 kts 11°
2026-04-27 13:09 42.18337 17.34147 35105 ft 453 kts 11°
2026-04-27 13:10 42.24434 17.36392 35105 ft 454 kts 11°
2026-04-27 13:10 42.30515 17.38639 35104 ft 456 kts 11°
2026-04-27 13:11 42.36654 17.40911 35103 ft 457 kts 11°
2026-04-27 13:11 42.42772 17.43180 35104 ft 458 kts 11°
2026-04-27 13:12 42.48925 17.45467 35105 ft 458 kts 11°
2026-04-27 13:12 42.55086 17.47756 35100 ft 459 kts 11°
2026-04-27 13:13 42.61252 17.50054 35099 ft 458 kts 11°
2026-04-27 13:13 42.67372 17.52341 35091 ft 458 kts 11°
2026-04-27 13:14 42.73538 17.54649 35095 ft 457 kts 11°
2026-04-27 13:14 42.79642 17.56936 35088 ft 457 kts 11°
2026-04-27 13:15 42.85792 17.59248 35100 ft 457 kts 11°
2026-04-27 13:15 42.91889 17.61546 35093 ft 456 kts 11°
2026-04-27 13:16 42.98028 17.63865 35080 ft 456 kts 12°
2026-04-27 13:16 43.04126 17.66162 35085 ft 456 kts 10°
2026-04-27 13:17 43.10326 17.68005 35077 ft 453 kts
2026-04-27 13:17 43.16532 17.69572 35089 ft 453 kts
2026-04-27 13:18 43.22706 17.71143 35076 ft 454 kts
2026-04-27 13:18 43.28940 17.72780 35075 ft 455 kts
2026-04-27 13:19 43.35131 17.74434 35076 ft 455 kts
2026-04-27 13:19 43.41357 17.76105 35081 ft 456 kts
2026-04-27 13:20 43.47614 17.77788 35086 ft 456 kts
2026-04-27 13:20 43.53815 17.79455 35072 ft 457 kts
2026-04-27 13:21 43.60068 17.81142 35090 ft 458 kts
2026-04-27 13:21 43.66299 17.82828 35097 ft 458 kts
2026-04-27 13:22 43.72564 17.84526 35081 ft 458 kts
2026-04-27 13:22 43.78814 17.86224 35099 ft 458 kts
2026-04-27 13:23 43.85088 17.87930 35098 ft 458 kts
2026-04-27 13:23 43.91317 17.89629 35108 ft 457 kts
2026-04-27 13:24 43.97563 17.91336 35108 ft 457 kts
2026-04-27 13:24 44.03776 17.93037 35116 ft 457 kts
2026-04-27 13:25 44.10026 17.94751 35105 ft 457 kts
2026-04-27 13:25 44.16287 17.96474 35112 ft 458 kts
2026-04-27 13:26 44.22543 17.98199 35114 ft 458 kts
2026-04-27 13:26 44.28765 17.99915 35120 ft 458 kts
2026-04-27 13:27 44.35013 18.01644 35118 ft 458 kts
2026-04-27 13:27 44.41257 18.03375 35122 ft 457 kts
2026-04-27 13:28 44.47508 18.05115 35121 ft 457 kts
2026-04-27 13:28 44.53716 18.06846 35130 ft 456 kts
2026-04-27 13:29 44.59947 18.08586 35135 ft 455 kts
2026-04-27 13:29 44.66134 18.10317 35141 ft 455 kts
2026-04-27 13:30 44.72351 18.12060 35138 ft 455 kts
2026-04-27 13:30 44.78550 18.13802 35147 ft 454 kts
2026-04-27 13:31 44.84753 18.15550 35157 ft 454 kts
2026-04-27 13:31 44.90910 18.17286 35141 ft 453 kts
2026-04-27 13:32 44.97100 18.19039 35153 ft 452 kts
2026-04-27 13:32 45.03243 18.20785 35162 ft 452 kts
2026-04-27 13:33 45.09414 18.22536 35165 ft 451 kts
2026-04-27 13:33 45.15583 18.24293 35163 ft 450 kts
2026-04-27 13:34 45.21693 18.26036 35175 ft 449 kts
2026-04-27 13:34 45.27830 18.27791 35176 ft 448 kts
2026-04-27 13:35 45.33916 18.29536 35177 ft 447 kts
2026-04-27 13:35 45.40027 18.31291 35171 ft 447 kts
2026-04-27 13:36 45.46090 18.33037 35175 ft 446 kts
2026-04-27 13:36 45.52172 18.34795 35181 ft 445 kts
2026-04-27 13:37 45.58219 18.36542 35187 ft 445 kts
2026-04-27 13:37 45.64305 18.38307 35185 ft 445 kts
2026-04-27 13:38 45.70387 18.40073 35184 ft 445 kts
2026-04-27 13:38 45.76440 18.41655 35182 ft 443 kts
2026-04-27 13:39 45.82591 18.42429 35181 ft 442 kts
2026-04-27 13:39 45.88693 18.43065 35185 ft 442 kts
2026-04-27 13:40 45.94864 18.43756 34859 ft 445 kts
2026-04-27 13:40 45.96905 18.43997 34700 ft 443 kts
2026-04-27 13:40 45.99979 18.44368 34447 ft 442 kts
2026-04-27 13:41 46.04053 18.44865 34111 ft 441 kts
2026-04-27 13:41 46.07110 18.45240 33380 ft 442 kts
2026-04-27 13:41 46.09137 18.45488 32970 ft 441 kts
2026-04-27 13:41 46.12208 18.45863 32215 ft 442 kts
2026-04-27 13:42 46.15279 18.46238 31472 ft 444 kts
2026-04-27 13:42 46.18367 18.46616 30681 ft 446 kts
2026-04-27 13:42 46.21473 18.46997 29863 ft 448 kts
2026-04-27 13:42 46.24592 18.47380 28998 ft 450 kts
2026-04-27 13:43 46.27727 18.47765 28087 ft 453 kts
2026-04-27 13:43 46.30873 18.48152 27123 ft 456 kts
2026-04-27 13:43 46.33993 18.48537 26456 ft 451 kts
2026-04-27 13:43 46.37111 18.48924 25768 ft 447 kts
2026-04-27 13:44 46.40211 18.49309 25091 ft 443 kts
2026-04-27 13:44 46.43273 18.49689 24420 ft 439 kts
2026-04-27 13:44 46.46271 18.50060 23766 ft 435 kts
2026-04-27 13:44 46.49288 18.50431 23103 ft 431 kts
2026-04-27 13:45 46.52274 18.50802 22446 ft 427 kts
2026-04-27 13:45 46.55223 18.51169 21808 ft 423 kts
2026-04-27 13:45 46.58149 18.51533 21163 ft 419 kts
2026-04-27 13:45 46.61010 18.51889 20528 ft 416 kts
2026-04-27 13:46 46.63889 18.52248 19889 ft 412 kts
2026-04-27 13:46 46.66745 18.52604 19255 ft 408 kts
2026-04-27 13:46 46.69536 18.52952 18637 ft 405 kts
2026-04-27 13:46 46.72334 18.53301 18007 ft 401 kts
2026-04-27 13:47 46.75109 18.53649 17398 ft 397 kts
2026-04-27 13:47 46.77863 18.53994 16780 ft 394 kts
2026-04-27 13:47 46.80586 18.54334 16164 ft 391 kts
2026-04-27 13:47 46.83254 18.54669 15572 ft 387 kts
2026-04-27 13:48 46.85934 18.55006 14974 ft 385 kts
2026-04-27 13:48 46.88589 18.55340 14375 ft 381 kts
2026-04-27 13:48 46.91236 18.55672 13775 ft 378 kts
2026-04-27 13:48 46.93854 18.56001 13187 ft 375 kts
2026-04-27 13:49 46.96413 18.56324 12618 ft 372 kts
2026-04-27 13:49 46.98976 18.56774 12003 ft 373 kts 10°
2026-04-27 13:49 47.01372 18.58274 11460 ft 376 kts 27°
2026-04-27 13:49 47.03575 18.60263 11286 ft 363 kts 28°
2026-04-27 13:50 47.05679 18.62192 11115 ft 350 kts 28°
2026-04-27 13:50 47.07720 18.64045 10958 ft 338 kts 28°
2026-04-27 13:50 47.09703 18.65827 10799 ft 328 kts 28°
2026-04-27 13:50 47.11621 18.67536 10724 ft 316 kts 28°
2026-04-27 13:51 47.13461 18.69174 10624 ft 300 kts 27°
2026-04-27 13:51 47.15192 18.70716 10369 ft 289 kts 27°
2026-04-27 13:51 47.16881 18.72221 10148 ft 278 kts 29°
2026-04-27 13:51 47.18302 18.74184 9743 ft 287 kts 56°
2026-04-27 13:52 47.18971 18.76928 9512 ft 287 kts 82°
2026-04-27 13:52 47.19064 18.79811 9254 ft 286 kts 88°
2026-04-27 13:52 47.19065 18.82733 8988 ft 285 kts 89°
2026-04-27 13:52 47.19060 18.85640 8741 ft 283 kts 89°
2026-04-27 13:53 47.19085 18.91391 8220 ft 280 kts 88°
2026-04-27 13:53 47.19156 18.94218 7997 ft 278 kts 84°
2026-04-27 13:53 47.19343 18.97039 7757 ft 275 kts 83°
2026-04-27 13:54 47.19554 18.99826 7498 ft 274 kts 83°
2026-04-27 13:54 47.19764 19.02611 7239 ft 273 kts 83°
2026-04-27 13:54 47.19966 19.05375 6970 ft 271 kts 83°
2026-04-27 13:54 47.20165 19.08133 6748 ft 269 kts 83°
2026-04-27 13:55 47.20351 19.10826 6508 ft 268 kts 83°
2026-04-27 13:55 47.20536 19.13562 6296 ft 266 kts 84°
2026-04-27 13:55 47.20717 19.16271 6037 ft 266 kts 84°
2026-04-27 13:55 47.20896 19.18969 5816 ft 263 kts 84°
2026-04-27 13:56 47.21072 19.21619 5565 ft 263 kts 84°
2026-04-27 13:56 47.21247 19.24270 5440 ft 256 kts 84°
2026-04-27 13:56 47.21415 19.26849 5308 ft 250 kts 84°
2026-04-27 13:56 47.21582 19.29379 5058 ft 246 kts 84°
2026-04-27 13:57 47.21745 19.31895 4635 ft 248 kts 84°
2026-04-27 13:57 47.21909 19.34424 4267 ft 248 kts 84°
2026-04-27 13:57 47.22068 19.36898 4046 ft 244 kts 85°
2026-04-27 13:57 47.22273 19.39341 3993 ft 236 kts 74°
2026-04-27 13:58 47.23064 19.41372 3874 ft 226 kts 48°
2026-04-27 13:58 47.24181 19.42968 3624 ft 222 kts 41°
2026-04-27 13:58 47.25338 19.44476 3313 ft 222 kts 41°
2026-04-27 13:58 47.26484 19.45990 3038 ft 220 kts 42°
2026-04-27 13:59 47.27592 19.47467 2994 ft 207 kts 41°
2026-04-27 13:59 47.28801 19.48383 2955 ft 194 kts
2026-04-27 13:59 47.30111 19.48212 2724 ft 189 kts 338°
2026-04-27 13:59 47.31213 19.47201 2550 ft 188 kts 315°
2026-04-27 14:00 47.32098 19.45849 2495 ft 177 kts 313°
2026-04-27 14:00 47.32931 19.44591 2477 ft 169 kts 311°
2026-04-27 14:00 47.33712 19.43343 2450 ft 163 kts 313°
2026-04-27 14:00 47.34483 19.42105 2524 ft 165 kts 309°
2026-04-27 14:01 47.35248 19.40833 2451 ft 171 kts 310°
2026-04-27 14:01 47.36041 19.39531 2240 ft 169 kts 310°
2026-04-27 14:01 47.36828 19.38257 1990 ft 165 kts 310°
2026-04-27 14:01 47.37578 19.37042 1809 ft 158 kts 309°
2026-04-27 14:02 47.38311 19.35847 1596 ft 155 kts 310°
2026-04-27 14:02 47.39027 19.34691 1386 ft 154 kts 309°
2026-04-27 14:02 47.39749 19.33529 1178 ft 153 kts 310°
2026-04-27 14:02 47.40461 19.32368 985 ft 151 kts 309°
2026-04-27 14:03 47.41167 19.31215 783 ft 151 kts 309°
2026-04-27 14:03 47.41858 19.30065 627 ft 148 kts 311°
2026-04-27 14:03 47.42547 19.28975 461 ft 144 kts 311°
2026-04-27 14:03 47.43161 19.27983 461 ft 111 kts 313°
2026-04-27 14:04 47.43579 19.27314 472 ft 62 kts 312°
2026-04-27 14:04 47.43724 19.26983 468 ft 30 kts 293°
2026-04-27 14:04 47.43775 19.26697 460 ft 25 kts 285°
2026-04-27 14:04 47.43801 19.26524 458 ft 14 kts 274°
2026-04-27 14:05 47.43750 19.26417 457 ft 13 kts 217°
2026-04-27 14:05 47.43672 19.26365 455 ft 13 kts 161°
2026-04-27 14:05 47.43606 19.26451 456 ft 13 kts 129°
2026-04-27 14:05 47.43559 19.26483 454 ft 7 kts 211°
2026-04-27 14:06 47.43538 19.26437 456 ft 2 kts 223°
2026-04-27 14:06 47.43532 19.26429 456 ft 0 kts 224°